logo tempoitalia

Diretta Meteo Atyrau, Kazakhstanlunedì 31 agosto ore 10:00

Mappa
Sereno 20 °C Sereno 24 Ore: T.min 9 T.max 25
Ponente Est/Nord-Est Km/h 14.4 Punto di rugiada: -2 °C Umidità: 22% Visibilità: 10 Km
Il sole sorge alle: 06:50 Il sole tramonta alle: 20:15
31 Agosto 2026 10:00 tempo osservato: Sereno Sereno 20 22 1024 vento: Nord E/NE 14.4
31 Agosto 2026 09:30 tempo osservato: Sereno Sereno 18 25 1023 vento: Nord E/NE 14.4
31 Agosto 2026 09:00 tempo osservato: Sereno Sereno 16 29 1023 vento: Nord E/NE 14.4
31 Agosto 2026 08:30 tempo osservato: Sereno Sereno 14 30 1024 vento: Nord NE 10.8
31 Agosto 2026 08:00 tempo osservato: Sereno Sereno 12 34 1023 vento: Nord N 7.2
31 Agosto 2026 07:30 tempo osservato: Sereno Sereno 10 39 1023 vento: Nord E/NE 10.8
31 Agosto 2026 07:00 tempo osservato: Sereno Sereno 9 39 1023 vento: Nord E/NE 10.8
31 Agosto 2026 06:30 tempo osservato: Sereno Sereno 9 39 1022 vento: Nord E/NE 14.4
31 Agosto 2026 06:00 tempo osservato: Sereno Sereno 9 39 1022 vento: Nord E/NE 14.4
31 Agosto 2026 05:30 tempo osservato: Sereno Sereno 10 36 1022 vento: Nord E/NE 10.8
31 Agosto 2026 05:00 tempo osservato: Sereno Sereno 10 42 1022 vento: Nord E/NE 10.8
31 Agosto 2026 04:30 tempo osservato: Sereno Sereno 10 39 1022 vento: Nord NE 14.4
31 Agosto 2026 04:00 tempo osservato: Sereno Sereno 11 34 1022 vento: Nord NE 14.4
31 Agosto 2026 03:30 tempo osservato: Sereno Sereno 12 32 1022 vento: Nord NE 14.4
31 Agosto 2026 03:00 tempo osservato: Sereno Sereno 11 34 1022 vento: Nord NE 14.4
31 Agosto 2026 02:30 tempo osservato: Sereno Sereno 11 34 1022 vento: Nord NE 14.4
31 Agosto 2026 02:00 tempo osservato: Sereno Sereno 12 34 1022 vento: Nord NE 10.8
31 Agosto 2026 01:30 tempo osservato: Sereno Sereno 12 32 1022 vento: Nord NE 10.8
31 Agosto 2026 01:00 tempo osservato: Sereno Sereno 13 32 1022 vento: Nord NE 10.8
31 Agosto 2026 00:30 tempo osservato: Sereno Sereno 13 32 1022 vento: Nord N/NE 10.8
31 Agosto 2026 00:00 tempo osservato: Sereno Sereno 15 28 1021 vento: Nord NE 10.8
30 Agosto 2026 23:30 tempo osservato: Sereno Sereno 15 26 1021 vento: Nord E/NE 10.8
30 Agosto 2026 23:00 tempo osservato: Sereno Sereno 15 26 1021 vento: Nord NE 10.8
30 Agosto 2026 22:30 tempo osservato: Sereno Sereno 16 26 1021 vento: Nord NE 10.8
30 Agosto 2026 22:00 tempo osservato: Sereno Sereno 17 23 1021 vento: Nord NE 10.8
30 Agosto 2026 21:30 tempo osservato: Sereno Sereno 18 22 1021 vento: Nord NE 10.8
30 Agosto 2026 21:00 tempo osservato: Sereno Sereno 20 19 1021 vento: Nord NE 14.4
30 Agosto 2026 20:30 tempo osservato: Sereno Sereno 21 18 1020 vento: Nord NE 14.4
30 Agosto 2026 20:00 tempo osservato: Sereno Sereno 22 17 1020 vento: Nord NE 18
30 Agosto 2026 19:30 tempo osservato: Sereno Sereno 23 16 1020 vento: Nord NE 18
30 Agosto 2026 19:00 tempo osservato: Sereno Sereno 24 16 1020 vento: Nord NE 18
30 Agosto 2026 18:30 tempo osservato: Sereno Sereno 24 16 1020 vento: Nord N/NE 18
30 Agosto 2026 18:00 tempo osservato: Sereno Sereno 25 14 1020 vento: Nord NE 18
30 Agosto 2026 17:30 tempo osservato: Sereno Sereno 25 14 1020 vento: Nord NE 18
30 Agosto 2026 17:00 tempo osservato: Sereno Sereno 24 16 1020 vento: Nord NE 25.2
30 Agosto 2026 16:30 tempo osservato: Sereno Sereno 24 17 1020 vento: Nord NE 21.6
30 Agosto 2026 16:00 tempo osservato: Sereno Sereno 24 19 1020 vento: Nord E/NE 21.6
30 Agosto 2026 15:30 tempo osservato: Sereno Sereno 23 18 1020 vento: Nord N/NE 21.6
30 Agosto 2026 15:00 tempo osservato: Sereno Sereno 23 20 1021 vento: Nord E/NE 14.4
30 Agosto 2026 14:30 tempo osservato: Sereno Sereno 23 20 1021 vento: Nord NE 14.4
30 Agosto 2026 14:00 tempo osservato: Sereno Sereno 22 21 1021 vento: Nord NE 21.6
30 Agosto 2026 13:30 tempo osservato: Sereno Sereno 22 21 1021 vento: Nord E/NE 18
30 Agosto 2026 13:00 tempo osservato: Sereno Sereno 22 23 1021 vento: Nord E/NE 18
30 Agosto 2026 12:30 tempo osservato: Sereno Sereno 22 23 1021 vento: Nord NE 21.6
30 Agosto 2026 12:00 tempo osservato: Sereno Sereno 21 24 1021 vento: Nord NE 21.6
30 Agosto 2026 11:30 tempo osservato: Sereno Sereno 22 23 1021 vento: Nord E 25.2
30 Agosto 2026 11:00 tempo osservato: Sereno Sereno 21 24 1021 vento: Nord E/NE 25.2